Starlink 11675

operational
NORAD ID: 64235 Int'l Des: 2025-119 Owner: SPXS Country: US Constellation: starlink
LEOCIRCULAR

Über Starlink 11675

Beschreibung wird geladen...

Live-Position

3D-Globus wird geladen...

Nächste Überflüge

Höhenverlauf

Altitude vs Time

uPlot chart will show altitude changes over time

Zweizeiliger Elementsatz

1 64235U 25119C 26095.58298049 .00252164 00000-0 19047-2 0 9998
2 64235 43.0008 47.0732 0001095 265.0088 95.0654 15.70901334 49470
Epoch: 5. Apr. 2026 • Age: 7 hours

Aktueller Status

Höhe 366.8 km
Geschwindigkeit 7.69 km/s
Subsatellitenpunkt -38.90°S, 133.38°E
Startdatum 3. Juni 2025
Alter 0.8 years
Typ internet

Technische Details

Klassifizierung Payload
Masse 960.00 kg
Trockenmasse 910.00 kg
Gesamtmasse 960.00 kg
Länge 0.30 m
Durchmesser 4.10 m
Spannweite 29.00 m
Form Box + pan
Hersteller SPXS
Bus-Typ Starlink V2MD
Phasenstatus In Orbit
Besitzer/Staat SPXS/US

Große Konstellationen

Loading constellations...